Time,TemperatureF,DewpointF,PressureIn,WindDirection,WindDirectionDegrees,WindSpeedMPH,WindSpeedGustMPH,Humidity,HourlyPrecipIn,Conditions,Clouds,dailyrainin,SoftwareType,DateUTC
2013-02-24 00:05:00,33.5,33.0,29.78,WNW,292,5.0,-999.0,96,-99.99,,,0.21,weatherlink.com 1.10,2013-02-24 05:05:00,
2013-02-24 00:20:00,33.4,32.0,29.78,WNW,294,6.0,-999.0,96,-99.99,,,0.01,weatherlink.com 1.10,2013-02-24 05:20:00,
2013-02-24 00:35:00,33.1,32.0,29.79,NW,309,6.0,-999.0,96,-99.99,,,0.01,weatherlink.com 1.10,2013-02-24 05:35:00,
2013-02-24 00:50:00,32.9,32.0,29.79,NW,305,3.0,-999.0,95,-99.99,,,0.01,weatherlink.com 1.10,2013-02-24 05:50:00,
2013-02-24 01:05:00,32.9,31.0,29.79,WNW,302,4.0,-999.0,94,-99.99,,,0.01,weatherlink.com 1.10,2013-02-24 06:05:00,
2013-02-24 01:20:00,32.7,31.0,29.79,WNW,298,5.0,-999.0,92,-99.99,,,0.01,weatherlink.com 1.10,2013-02-24 06:20:00,
2013-02-24 01:35:00,32.4,30.0,29.79,WNW,296,3.0,-999.0,92,-99.99,,,0.02,weatherlink.com 1.10,2013-02-24 06:35:00,
2013-02-24 01:50:00,32.2,30.0,29.79,WNW,296,0.0,-999.0,93,-99.99,,,0.02,weatherlink.com 1.10,2013-02-24 06:50:00,
2013-02-24 02:05:00,32.1,30.0,29.79,WNW,296,0.0,-999.0,93,-99.99,,,0.02,weatherlink.com 1.10,2013-02-24 07:05:00,
2013-02-24 02:20:00,32.1,30.0,29.79,WNW,296,0.0,-999.0,93,-99.99,,,0.02,weatherlink.com 1.10,2013-02-24 07:20:00,
2013-02-24 02:39:00,31.9,30.0,29.78,WNW,296,1.0,-999.0,93,-99.99,,,0.02,weatherlink.com 1.10,2013-02-24 07:39:00,
2013-02-24 02:50:00,31.6,30.0,29.77,WNW,296,3.0,-999.0,93,-99.99,,,0.02,weatherlink.com 1.10,2013-02-24 07:50:00,
2013-02-24 03:05:00,31.6,30.0,29.76,WNW,296,0.0,-999.0,93,-99.99,,,0.02,weatherlink.com 1.10,2013-02-24 08:05:00,
2013-02-24 03:20:00,31.6,30.0,29.77,WNW,296,0.0,-999.0,93,-99.99,,,0.02,weatherlink.com 1.10,2013-02-24 08:20:00,
2013-02-24 03:35:00,31.6,30.0,29.77,WNW,296,1.0,-999.0,93,-99.99,,,0.02,weatherlink.com 1.10,2013-02-24 08:35:00,
2013-02-24 03:50:00,31.5,30.0,29.77,WNW,296,0.0,-999.0,93,-99.99,,,0.02,weatherlink.com 1.10,2013-02-24 08:50:00,
2013-02-24 04:05:00,31.5,30.0,29.77,WNW,296,0.0,-999.0,94,-99.99,,,0.02,weatherlink.com 1.10,2013-02-24 09:05:00,
2013-02-24 04:20:00,31.5,30.0,29.78,WNW,296,0.0,-999.0,93,-99.99,,,0.02,weatherlink.com 1.10,2013-02-24 09:20:00,
2013-02-24 04:35:00,31.3,30.0,29.79,WNW,296,0.0,-999.0,93,-99.99,,,0.02,weatherlink.com 1.10,2013-02-24 09:35:00,
2013-02-24 04:50:00,31.2,29.0,29.79,WNW,296,0.0,-999.0,93,-99.99,,,0.02,weatherlink.com 1.10,2013-02-24 09:50:00,
2013-02-24 05:05:00,30.9,29.0,29.79,WNW,296,0.0,-999.0,93,-99.99,,,0.02,weatherlink.com 1.10,2013-02-24 10:05:00,
2013-02-24 05:20:00,30.7,29.0,29.78,WNW,296,0.0,-999.0,93,-99.99,,,0.02,weatherlink.com 1.10,2013-02-24 10:20:00,
2013-02-24 05:35:00,30.6,29.0,29.78,WNW,296,0.0,-999.0,92,-99.99,,,0.02,weatherlink.com 1.10,2013-02-24 10:35:00,
2013-02-24 05:50:00,30.6,29.0,29.77,WNW,296,0.0,-999.0,92,-99.99,,,0.02,weatherlink.com 1.10,2013-02-24 10:50:00,
2013-02-24 06:05:00,30.6,29.0,29.77,WNW,296,0.0,-999.0,92,-99.99,,,0.02,weatherlink.com 1.10,2013-02-24 11:05:00,
2013-02-24 06:20:00,30.6,29.0,29.77,WNW,296,0.0,-999.0,92,-99.99,,,0.02,weatherlink.com 1.10,2013-02-24 11:20:00,
2013-02-24 06:36:00,30.6,29.0,29.78,WNW,296,0.0,-999.0,92,-99.99,,,0.02,weatherlink.com 1.10,2013-02-24 11:36:00,
2013-02-24 06:51:00,30.6,29.0,29.79,WNW,296,0.0,-999.0,92,-99.99,,,0.02,weatherlink.com 1.10,2013-02-24 11:51:00,
2013-02-24 07:06:00,30.4,28.0,29.78,WNW,296,0.0,-999.0,92,-99.99,,,0.02,weatherlink.com 1.10,2013-02-24 12:06:00,
2013-02-24 07:21:00,30.6,28.0,29.79,WNW,296,0.0,-999.0,91,-99.99,,,0.02,weatherlink.com 1.10,2013-02-24 12:21:00,
2013-02-24 07:36:00,30.7,28.0,29.79,WNW,296,0.0,-999.0,91,-99.99,,,0.02,weatherlink.com 1.10,2013-02-24 12:36:00,
2013-02-24 07:51:00,30.9,28.0,29.79,WNW,296,0.0,-999.0,90,-99.99,,,0.02,weatherlink.com 1.10,2013-02-24 12:51:00,
2013-02-24 08:06:00,30.7,28.0,29.79,WNW,296,3.0,-999.0,88,-99.99,,,0.02,weatherlink.com 1.10,2013-02-24 13:06:00,
2013-02-24 08:21:00,30.7,27.0,29.79,WNW,296,4.0,-999.0,87,-99.99,,,0.02,weatherlink.com 1.10,2013-02-24 13:21:00,
2013-02-24 08:36:00,30.9,28.0,29.79,WNW,296,5.0,-999.0,87,-99.99,,,0.02,weatherlink.com 1.10,2013-02-24 13:36:00,
2013-02-24 08:51:00,30.9,27.0,29.79,WNW,296,2.0,-999.0,86,-99.99,,,0.02,weatherlink.com 1.10,2013-02-24 13:51:00,
2013-02-24 09:06:00,31.0,27.0,29.79,WNW,296,2.0,-999.0,86,-99.99,,,0.02,weatherlink.com 1.10,2013-02-24 14:06:00,
2013-02-24 09:21:00,31.0,27.0,29.78,WNW,296,3.0,-999.0,84,-99.99,,,0.02,weatherlink.com 1.10,2013-02-24 14:21:00,
2013-02-24 09:36:00,31.2,27.0,29.78,WNW,296,2.0,-999.0,83,-99.99,,,0.02,weatherlink.com 1.10,2013-02-24 14:36:00,
2013-02-24 09:51:00,31.3,26.0,29.78,WNW,296,5.0,-999.0,82,-99.99,,,0.02,weatherlink.com 1.10,2013-02-24 14:51:00,
2013-02-24 10:06:00,31.5,26.0,29.78,WNW,300,8.0,-999.0,81,-99.99,,,0.02,weatherlink.com 1.10,2013-02-24 15:06:00,
2013-02-24 10:21:00,31.3,26.0,29.78,WNW,288,10.0,-999.0,80,-99.99,,,0.02,weatherlink.com 1.10,2013-02-24 15:21:00,
2013-02-24 10:36:00,31.2,25.0,29.78,WNW,288,13.0,-999.0,79,-99.99,,,0.02,weatherlink.com 1.10,2013-02-24 15:36:00,
2013-02-24 10:51:00,31.0,25.0,29.78,WNW,294,13.0,-999.0,78,-99.99,,,0.02,weatherlink.com 1.10,2013-02-24 15:51:00,
2013-02-24 11:06:00,30.9,25.0,29.78,WNW,296,15.0,-999.0,77,-99.99,,,0.02,weatherlink.com 1.10,2013-02-24 16:06:00,
2013-02-24 11:21:00,31.0,25.0,29.78,WNW,300,7.0,-999.0,77,-99.99,,,0.02,weatherlink.com 1.10,2013-02-24 16:21:00,
2013-02-24 11:36:00,31.0,24.0,29.79,WNW,297,12.0,-999.0,75,-99.99,,,0.02,weatherlink.com 1.10,2013-02-24 16:36:00,
2013-02-24 11:51:00,30.9,24.0,29.79,WNW,301,9.0,-999.0,76,-99.99,,,0.02,weatherlink.com 1.10,2013-02-24 16:51:00,
2013-02-24 12:06:00,31.2,24.0,29.79,WNW,294,5.0,-999.0,75,-99.99,,,0.03,weatherlink.com 1.10,2013-02-24 17:06:00,
2013-02-24 12:21:00,31.3,24.0,29.79,WNW,290,6.0,-999.0,74,-99.99,,,0.03,weatherlink.com 1.10,2013-02-24 17:21:00,
2013-02-24 12:36:00,31.3,24.0,29.79,NW,310,7.0,-999.0,74,-99.99,,,0.03,weatherlink.com 1.10,2013-02-24 17:36:00,
2013-02-24 12:51:00,31.3,24.0,29.79,WNW,297,5.0,-999.0,75,-99.99,,,0.03,weatherlink.com 1.10,2013-02-24 17:51:00,
2013-02-24 13:06:00,31.3,25.0,29.79,WNW,298,5.0,-999.0,76,-99.99,,,0.03,weatherlink.com 1.10,2013-02-24 18:06:00,
2013-02-24 13:21:00,31.3,25.0,29.79,WNW,292,7.0,-999.0,76,-99.99,,,0.03,weatherlink.com 1.10,2013-02-24 18:21:00,
2013-02-24 13:36:00,31.3,25.0,29.79,WNW,292,5.0,-999.0,77,-99.99,,,0.03,weatherlink.com 1.10,2013-02-24 18:36:00,
2013-02-24 13:51:00,31.0,26.0,29.79,WNW,289,4.0,-999.0,80,-99.99,,,0.03,weatherlink.com 1.10,2013-02-24 18:51:00,
2013-02-24 14:06:00,30.4,26.0,29.80,WNW,290,7.0,-999.0,84,-99.99,,,0.03,weatherlink.com 1.10,2013-02-24 19:06:00,
2013-02-24 14:21:00,30.1,26.0,29.80,WNW,291,5.0,-999.0,85,-99.99,,,0.03,weatherlink.com 1.10,2013-02-24 19:21:00,
2013-02-24 14:36:00,30.3,26.0,29.79,WNW,291,5.0,-999.0,85,-99.99,,,0.04,weatherlink.com 1.10,2013-02-24 19:36:00,
2013-02-24 14:51:00,30.4,27.0,29.80,WNW,291,2.0,-999.0,87,-99.99,,,0.04,weatherlink.com 1.10,2013-02-24 19:51:00,
2013-02-24 15:06:00,30.4,27.0,29.80,WNW,292,3.0,-999.0,88,-99.99,,,0.04,weatherlink.com 1.10,2013-02-24 20:06:00,
2013-02-24 15:21:00,30.4,27.0,29.80,WNW,292,10.0,-999.0,88,-99.99,,,0.04,weatherlink.com 1.10,2013-02-24 20:21:00,
2013-02-24 15:36:00,30.3,27.0,29.80,WNW,291,10.0,-999.0,88,-99.99,,,0.04,weatherlink.com 1.10,2013-02-24 20:36:00,
2013-02-24 15:51:00,30.3,28.0,29.81,WNW,298,3.0,-999.0,89,-99.99,,,0.04,weatherlink.com 1.10,2013-02-24 20:51:00,
2013-02-24 16:06:00,30.3,28.0,29.81,WNW,297,5.0,-999.0,90,-99.99,,,0.04,weatherlink.com 1.10,2013-02-24 21:06:00,
2013-02-24 16:21:00,30.0,28.0,29.82,WNW,295,7.0,-999.0,91,-99.99,,,0.04,weatherlink.com 1.10,2013-02-24 21:21:00,
2013-02-24 16:36:00,30.0,28.0,29.82,WNW,293,4.0,-999.0,91,-99.99,,,0.04,weatherlink.com 1.10,2013-02-24 21:36:00,
2013-02-24 16:51:00,29.7,27.0,29.82,WNW,293,7.0,-999.0,89,-99.99,,,0.04,weatherlink.com 1.10,2013-02-24 21:51:00,
2013-02-24 17:06:00,29.8,27.0,29.83,WNW,292,4.0,-999.0,89,-99.99,,,0.04,weatherlink.com 1.10,2013-02-24 22:06:00,
2013-02-24 17:21:00,29.7,27.0,29.83,WNW,294,7.0,-999.0,89,-99.99,,,0.04,weatherlink.com 1.10,2013-02-24 22:21:00,
2013-02-24 17:36:00,29.4,26.0,29.84,WNW,290,12.0,-999.0,88,-99.99,,,0.04,weatherlink.com 1.10,2013-02-24 22:36:00,
2013-02-24 17:51:00,29.0,26.0,29.85,WNW,290,11.0,-999.0,88,-99.99,,,0.04,weatherlink.com 1.10,2013-02-24 22:51:00,
2013-02-24 18:06:00,29.0,26.0,29.86,WNW,290,9.0,-999.0,88,-99.99,,,0.04,weatherlink.com 1.10,2013-02-24 23:06:00,
2013-02-24 18:21:00,29.3,26.0,29.87,WNW,290,6.0,-999.0,88,-99.99,,,0.04,weatherlink.com 1.10,2013-02-24 23:21:00,
2013-02-24 18:36:00,28.8,26.0,29.88,WNW,290,5.0,-999.0,88,-99.99,,,0.04,weatherlink.com 1.10,2013-02-24 23:36:00,
2013-02-24 18:51:00,29.1,26.0,29.88,WNW,290,4.0,-999.0,88,-99.99,,,0.04,weatherlink.com 1.10,2013-02-24 23:51:00,
2013-02-24 19:06:00,29.1,26.0,29.89,WNW,289,3.0,-999.0,89,-99.99,,,0.04,weatherlink.com 1.10,2013-02-25 00:06:00,
2013-02-24 19:21:00,29.1,26.0,29.90,WNW,289,3.0,-999.0,89,-99.99,,,0.04,weatherlink.com 1.10,2013-02-25 00:21:00,
2013-02-24 19:39:00,29.1,26.0,29.90,WNW,290,0.0,-999.0,89,-99.99,,,0.04,weatherlink.com 1.10,2013-02-25 00:39:00,
2013-02-24 19:51:00,29.1,26.0,29.90,WNW,290,2.0,-999.0,89,-99.99,,,0.04,weatherlink.com 1.10,2013-02-25 00:51:00,
2013-02-24 20:06:00,29.0,27.0,29.91,WNW,290,3.0,-999.0,90,-99.99,,,0.04,weatherlink.com 1.10,2013-02-25 01:06:00,
2013-02-24 20:21:00,29.0,27.0,29.91,WNW,290,0.0,-999.0,90,-99.99,,,0.04,weatherlink.com 1.10,2013-02-25 01:21:00,
2013-02-24 20:36:00,29.0,27.0,29.92,WNW,290,1.0,-999.0,91,-99.99,,,0.04,weatherlink.com 1.10,2013-02-25 01:36:00,
2013-02-24 20:51:00,28.8,27.0,29.93,WNW,290,3.0,-999.0,91,-99.99,,,0.04,weatherlink.com 1.10,2013-02-25 01:51:00,
2013-02-24 21:06:00,28.7,26.0,29.93,WNW,290,0.0,-999.0,91,-99.99,,,0.04,weatherlink.com 1.10,2013-02-25 02:06:00,
2013-02-24 21:21:00,28.7,27.0,29.93,WNW,290,4.0,-999.0,92,-99.99,,,0.04,weatherlink.com 1.10,2013-02-25 02:21:00,
2013-02-24 21:36:00,28.7,27.0,29.93,WNW,290,0.0,-999.0,92,-99.99,,,0.04,weatherlink.com 1.10,2013-02-25 02:36:00,
2013-02-24 21:51:00,28.7,27.0,29.93,WNW,290,2.0,-999.0,92,-99.99,,,0.04,weatherlink.com 1.10,2013-02-25 02:51:00,
2013-02-24 22:06:00,28.7,27.0,29.93,WNW,290,0.0,-999.0,92,-99.99,,,0.04,weatherlink.com 1.10,2013-02-25 03:06:00,
2013-02-24 22:21:00,28.7,27.0,29.93,WNW,290,0.0,-999.0,92,-99.99,,,0.04,weatherlink.com 1.10,2013-02-25 03:21:00,
2013-02-24 22:36:00,28.7,27.0,29.93,WNW,290,0.0,-999.0,92,-99.99,,,0.04,weatherlink.com 1.10,2013-02-25 03:36:00,
2013-02-24 22:52:00,28.7,27.0,29.94,WNW,290,0.0,-999.0,92,-99.99,,,0.04,weatherlink.com 1.10,2013-02-25 03:52:00,
2013-02-24 23:07:00,28.7,27.0,29.94,WNW,290,3.0,-999.0,92,-99.99,,,0.04,weatherlink.com 1.10,2013-02-25 04:07:00,
2013-02-24 23:22:00,28.7,27.0,29.93,WNW,290,3.0,-999.0,92,-99.99,,,0.04,weatherlink.com 1.10,2013-02-25 04:22:00,
2013-02-24 23:37:00,28.7,27.0,29.93,WNW,290,0.0,-999.0,92,-99.99,,,0.04,weatherlink.com 1.10,2013-02-25 04:37:00,
2013-02-24 23:52:00,28.7,26.0,29.94,WNW,290,0.0,-999.0,91,-99.99,,,0.04,weatherlink.com 1.10,2013-02-25 04:52:00,